Clinton-Sherman, OK

9:50 PM CST on December 12, 2017 (GMT -0600)
Clinton-Sherman

Weather History for KCSM - May, 2013

Change the Weather History Date:

Thursday, May 9, 2013

  Actual Average Record
Temperature  
Mean Temperature 66 °F -  
Max Temperature 73 °F 78 °F 98 °F (2011)
Min Temperature 60 °F 53 °F 46 °F (2012)
Cooling Degree Days 2    
Growing Degree Days 16 (Base 50)    
Moisture  
Dew Point 61 °F    
Average Humidity 83    
Maximum Humidity 100    
Minimum Humidity 64    
Precipitation  
Precipitation 0.00 in - - ()
Sea Level Pressure  
Sea Level Pressure 29.90 in    
Wind  
Wind Speed 8 mph (NE)    
Max Wind Speed 18 mph    
Max Gust Speed 21 mph    
Visibility 9 miles    
Events Thunderstorm    
Averages and records for this station are not official NWS values.
T = Trace of Precipitation, MM = Missing Value Source: NWS Daily Summary

Daily Weather History Graph

Daily Weather History Graph

Search for Another Location

Airport or City:

Trip Planner

Search our weather history database for the weather conditions in past years. The results will help you decide how hot, cold, wet, or windy it might be!

Date:

Astronomy

May. 09, 2013 Rise Set
Actual Time 6:37 AM CDT 8:29 PM CDT
Civil Twilight 6:09 AM CDT 8:57 PM CDT
Nautical Twilight 5:35 AM CDT 9:31 PM CDT
Astronomical Twilight 4:59 AM CDT 10:07 PM CDT
Moon 6:21 AM CDT (5/9) 8:26 PM CDT (5/9)
Length of Visible Light 14h 48m
Length of Day
13h 52m
Waning Crescent, 0% of the Moon is Illuminated
May 9
Waning Crescent
May 9
New
May 17
First Quarter
May 24
Full
May 31
Last Quarter

Hourly Weather History & Observations

Time (CDT) Temp. Dew Point Humidity Pressure Visibility Wind Dir Wind Speed Gust Speed Precip Events Conditions
1:53 AM 63.0 °F 61.0 °F 93% 29.83 in 9.0 mi NW 5.8 mph - N/A   Overcast
2:53 AM 64.0 °F 61.0 °F 90% 29.81 in 9.0 mi East 6.9 mph - N/A   Overcast
3:53 AM 63.0 °F 61.0 °F 93% 29.80 in 8.0 mi ESE 6.9 mph - N/A   Mostly Cloudy
4:05 AM 62.6 °F 60.8 °F 94% 29.86 in 7.0 mi ESE 6.9 mph - N/A   Scattered Clouds
4:53 AM 62.1 °F 61.0 °F 96% 29.79 in 6.0 mi East 8.1 mph - N/A   Clear
5:40 AM 60.8 °F 60.8 °F 100% 29.88 in 4.0 mi East 6.9 mph - N/A   Partly Cloudy
5:53 AM 60.1 °F 60.1 °F 100% 29.82 in 4.0 mi ESE 8.1 mph - N/A   Partly Cloudy
6:53 AM 61.0 °F 60.1 °F 97% 29.85 in 4.0 mi East 4.6 mph - N/A   Mostly Cloudy
7:53 AM 64.0 °F 62.1 °F 93% 29.87 in 6.0 mi NNW 4.6 mph - N/A   Overcast
8:24 AM 64.4 °F 62.6 °F 94% 29.92 in 6.0 mi NNE 5.8 mph - N/A   Overcast
8:53 AM 63.0 °F 61.0 °F 93% 29.89 in 5.0 mi North 8.1 mph - N/A   Overcast
9:44 AM 66.2 °F 60.8 °F 83% 29.94 in 10.0 mi North 6.9 mph - N/A   Overcast
9:53 AM 66.0 °F 60.1 °F 81% 29.89 in 10.0 mi North 6.9 mph - N/A   Overcast
10:22 AM 66.2 °F 60.8 °F 83% 29.95 in 10.0 mi North 6.9 mph - N/A   Overcast
10:42 AM 68.0 °F 59.0 °F 73% 29.95 in 10.0 mi North 10.4 mph - N/A   Overcast
10:53 AM 66.9 °F 59.0 °F 76% 29.91 in 10.0 mi North 9.2 mph - N/A   Overcast
12:03 PM 69.8 °F 60.8 °F 73% 29.94 in 10.0 mi North 15.0 mph 20.7 mph N/A   Mostly Cloudy
12:53 PM 68.0 °F 60.1 °F 76% 29.92 in 10.0 mi North 11.5 mph - N/A   Overcast
1:53 PM 72.0 °F 61.0 °F 68% 29.93 in 10.0 mi NNE 13.8 mph 18.4 mph N/A   Overcast
2:53 PM 72.0 °F 61.0 °F 68% 29.91 in 10.0 mi NE 16.1 mph - N/A   Mostly Cloudy
3:10 PM 71.6 °F 60.8 °F 69% 29.96 in 10.0 mi NNE 13.8 mph - N/A   Scattered Clouds
3:53 PM 73.0 °F 61.0 °F 66% 29.90 in 10.0 mi NNE 13.8 mph - N/A   Scattered Clouds
4:53 PM 73.9 °F 61.0 °F 64% 29.89 in 10.0 mi NNE 12.7 mph - N/A   Partly Cloudy
5:53 PM 73.0 °F 60.1 °F 64% 29.88 in 10.0 mi NE 18.4 mph - N/A   Partly Cloudy
7:53 PM 68.0 °F 59.0 °F 73% 29.88 in 10.0 mi ENE 13.8 mph - N/A   Scattered Clouds
8:53 PM 66.9 °F 60.1 °F 79% 29.94 in 10.0 mi ENE 8.1 mph - N/A Thunderstorm Thunderstorm
9:26 PM 64.4 °F 60.8 °F 88% 29.99 in 10.0 mi ENE 5.8 mph - N/A   Mostly Cloudy
9:53 PM 64.9 °F 60.1 °F 84% 29.96 in 10.0 mi East 5.8 mph - N/A   Mostly Cloudy
10:53 PM 61.0 °F 59.0 °F 93% 29.98 in 10.0 mi NNE 6.9 mph - 0.00 in   Clear
11:53 PM 62.1 °F 60.1 °F 93% 29.97 in 9.0 mi North 8.1 mph - N/A   Partly Cloudy